Regional Weather Roundup
Issued by NWS

Home | Current Version | Previous Version | Text Only | Print | Product List | Glossary Off
Versions: 1 2 3 4 5 6 7 8 9 10 11 12 13 14 15 16 17 18 19 20 21 22 23 24 25 26 27 28 29 30 31 32 33 34 35 36 37 38 39 40 41 42 43 44 45 46 47 48 49 50

000
ASUS43 KLOT 290608
RWRIL

ILLINOIS REGIONAL WEATHER ROUNDUP
NATIONAL WEATHER SERVICE CHICAGO/ROMEOVILLE IL
100 AM CDT SUN MAY 29 2016

NOTE: "FAIR" INDICATES FEW OR NO CLOUDS BELOW 12,000 FEET WITH NO
SIGNIFICANT WEATHER AND/OR OBSTRUCTIONS TO VISIBILITY.

* THESE STATIONS ARE NOT UNDER NWS QUALITY CONTROL. THEY ALSO MAY NOT
  REPORT WEATHER SUCH AS PRECIPITATION OR FOG.

ILZ001-002-007-009-015-016-024-290700-
NORTHWEST ILLINOIS

CITY           SKY/WX    TMP DP  RH WIND       PRES   REMARKS
MOLINE         MOCLDY    69  59  70 S8        29.94S
6HR MIN TEMP:  69; 6HR MAX TEMP:  80;

STERLING*      PTCLDY    68  64  87 CALM      29.96R
SAVANNA*       CLOUDY    69  60  75 SW9       29.93S
$$

ILZ003-004-008-010-011-017-018-290700-
NORTH CENTRAL ILLINOIS

CITY           SKY/WX    TMP DP  RH WIND       PRES   REMARKS
ROCKFORD       CLOUDY    71  63  75 SW7       29.96S
6HR MIN TEMP:  68; 6HR MAX TEMP:  83; 6HR PCP: TRACE;

FREEPORT*      CLOUDY    65  59  82 SW10      29.96S
ROCHELLE*      CLOUDY    67  63  87 S10       29.96S
DE KALB*       CLOUDY    65  63  93 S12       29.97F
$$

ILZ005-006-012>014-019>023-290700-
NORTHEAST ILLINOIS

CITY           SKY/WX    TMP DP  RH WIND       PRES   REMARKS
CHICAGO-OHARE  MOCLDY    67  61  81 SW9       29.96S
6HR MIN TEMP:  64; 6HR MAX TEMP:  79; 6HR PCP:  0.13;

CHICAGO-MIDWAY CLOUDY    71  55  56 SW9       29.97S
6HR MIN TEMP:  71; 6HR MAX TEMP:  82;

AURORA         CLOUDY    66  61  84 SW9       29.97F
6HR MIN TEMP:  65; 6HR MAX TEMP:  82; 6HR PCP:  0.44;

LANSING*       CLOUDY    69  56  62 SW13      30.01R
JOLIET*        CLOUDY    66  62  86 S3        29.95F
WAUKEGAN       MOCLDY    65  62  90 SW8       29.94S
6HR MIN TEMP:  64; 6HR MAX TEMP:  80; 6HR PCP:  0.09;

DUPAGE AIRPORT LGT RAIN  65  59  81 SW9       29.97S
6HR MIN TEMP:  65; 6HR MAX TEMP:  79; 6HR PCP:  0.11;

KANKAKEE*      CLOUDY    63  58  83 S8        30.01F
WHEELING       CLOUDY    67  63  87 SW13      29.97S
6HR MIN TEMP:  64; 6HR MAX TEMP:  80; 6HR PCP:  0.20;

MORRIS*        CLOUDY    65  62  89 SW8       29.97F
ROMEOVILLE*    CLOUDY    65  58  77 SE7       29.94F
NORTHERLY ISL    N/A     72  54  53 SW9         N/A
NORTHERLY ISL    N/A     72  54  53 SW9         N/A
$$

LMZ740>746-290700-
SOUTHERN LAKE MICHIGAN

STATION/POSITION SKY/WX   TEMP    WIND        PRES    VSBY  WAVE
                          AIR SEA DIR/SP/G                  HT/PER
                          (F)     (DEG/KT/KT) (MB)    (MI)  (FT/S)
SOUTHERN BUOY              56 50  190/  6/  8 1013.7F         2/ 4
WILMETTE HARBOR            60 52  220/  8/ 16   N/A           1/ 3
HARRISON CRIB              72     230/  8/  8   N/A
BURNHAM HARBOR             72     210/  7/ 10   N/A
CALUMET HARBOR             73     200/  9/ 11 1014.6R
BURNS HARBOR               73     200/ 12/ 19 1015.6R
MICHIGAN CITY              73     160/ 11/ 14   N/A
MICHIGAN CITY 6N           65 56  230/  8/ 10   N/A           1/ 3
ST. JOSEPH                 67 61  200/ 10/ 14   N/A           2/ 3
$$

ILZ025>027-034>036-040-047-049-050-058-095>099-290700-
WEST-CENTRAL ILLINOIS

CITY           SKY/WX    TMP DP  RH WIND       PRES   REMARKS
QUINCY         CLEAR     66  60  81 S6        30.00R
GALESBURG*     CLOUDY    66  60  81 SW7       29.97S
MACOMB*        PTCLDY    66  61  84 W9        30.00S
JACKSONVILLE*  MOCLDY    70  65  84 W3        29.99F
PITTSFIELD*    PTCLDY    68  64  87 SW5       30.02R
$$

ILZ028>032-037-038-041>044-048-051>054-059>061-290700-
CENTRAL ILLINOIS

CITY           SKY/WX    TMP DP  RH WIND       PRES   REMARKS
PONTIAC        CLOUDY    67  62  84 S12       30.01R
BLOOMINGTON    CLOUDY    65  64  96 S8        30.02F
DECATUR        CLOUDY    72  66  81 S8        30.00F
PEORIA         CLEAR     65  63  93 S5        29.99R
6HR MIN TEMP:  65; 6HR MAX TEMP:  81; 6HR PCP:  0.04;

LACON*         CLOUDY    65  62  89 SE6       29.98R
LINCOLN*       PTCLDY    67  66  99 CALM      30.00R
SPRINGFIELD    CLOUDY    75  67  76 SW5       30.00S
6HR MIN TEMP:  74; 6HR MAX TEMP:  82;

TAYLORVILLE    PTCLDY    70  67  90 SW6       30.01R
6HR MIN TEMP:  70; 6HR MAX TEMP:  79;

$$

ILZ033-039-045-046-055>057-062-063-290700-
EAST-CENTRAL ILLINOIS

CITY           SKY/WX    TMP DP  RH WIND       PRES   REMARKS
CHAMPAIGN      PTCLDY    71  65  81 S9        30.02F
RANTOUL*       CLOUDY    68  60  75 NW5       30.03F
MATTOON        CLEAR     71  65  81 S5        30.01F
PARIS*         PTCLDY    70  67  90 SW3       30.04R
$$

ILZ079-100>102-290700-
SOUTHWEST ILLINOIS

CITY           SKY/WX    TMP DP  RH WIND       PRES   REMARKS
ALTON          CLEAR     68  61  78 CALM      30.02R
BELLEVILLE     CLEAR     72  71  96 VRB1      30.01R
CAHOKIA*       CLEAR     71  64  78 CALM      30.01R
SPARTA*        CLEAR     71  67  88 SW6       30.03R
$$

ILZ064>066-069>071-074>076-080>082-084>086-088>090-092>094-290700-
SOUTH-CENTRAL ILLINOIS

CITY           SKY/WX    TMP DP  RH WIND       PRES   REMARKS
CARBONDALE     CLEAR     66  64  93 S3        30.03R
6HR MIN TEMP:  66; 6HR MAX TEMP:  78;

CAIRO*         CLEAR     70  67  91 CALM      30.04F
EFFINGHAM*     CLEAR     71  68  90 S3        30.03S
MARION         CLEAR     70  68  94 CALM      30.03F
MT. VERNON     PTCLDY    70  64  83 SW3       30.03S
CENTRALIA*     CLEAR     71  69  93 SW9       30.00S
SALEM*         CLEAR     73  68  83 S10       30.00S
METROPOLIS*    CLEAR     71  67  86 CALM      30.05S
$$

ILZ067-068-072-073-078-083-087-091-290700-
SOUTHEAST ILLINOIS

CITY           SKY/WX    TMP DP  RH WIND       PRES   REMARKS
LAWRENCEVILLE  PTCLDY    70  68  93 S7        30.03F
FLORA*         PTCLDY    71  68  89 SW3       30.02S
FAIRFIELD*     CLEAR     69  67  93 SE5       30.01F
HARRISBURG*    CLEAR     68  67  98 CALM      30.04S
ROBINSON*      PTCLDY    68  65  93 S6        30.03F
CARMI*         CLEAR     68  67  97 S7        30.03S
$$

ABBREVIATIONS USED IN REMARKS
   TC - TEMPERATURE IN CELSIUS
  WCI - WIND CHILL INDEX
   HX - HEAT INDEX
  VSB - VISIBILITY
$$





USA.gov is the U.S. government's official web portal to all federal, state and local government web resources and services.